Weather History for Algona, IA

Change the Weather History Date:

Tuesday, January 14, 2014

  Actual Average Record
Temperature  
Mean Temperature 24 °F -  
Max Temperature 37 °F 23 °F 41 °F (2000)
Min Temperature 12 °F 8 °F -9 °F (2005)
Degree Days  
Heating Degree Days 40    
Moisture  
Dew Point 17 °F    
Average Humidity 73    
Maximum Humidity 93    
Minimum Humidity 62    
Precipitation  
Precipitation 0.01 in - - ()
Sea Level Pressure  
Sea Level Pressure 29.86 in    
Wind  
Wind Speed 22 mph (NW)    
Max Wind Speed 36 mph    
Max Gust Speed 51 mph    
Visibility 9 miles    
Events Rain , Snow    
Averages and records for this station are not official NWS values.
T = Trace of Precipitation, MM = Missing Value Source: NWS Daily Summary

Daily Weather History Graph

Daily Weather History Graph

Search for Another Location

Airport:

Trip Planner

Search our weather history database for the weather conditions in past years. The results will help you decide how hot, cold, wet, or windy it might be!

Date:

Astronomy

Jan. 14, 2014 Rise Set
Actual Time 7:46 AM CST 5:06 PM CST
Civil Twilight 7:14 AM CST 5:38 PM CST
Nautical Twilight 6:39 AM CST 6:13 PM CST
Astronomical Twilight 6:05 AM CST 6:47 PM CST
Moon 4:13 PM CST (1/14) 6:20 AM CST (1/14)
Length of Visible Light 10h 23m
Length of Day
9h 20m
Waxing Gibbous, 98% of the Moon is Illuminated
Jan 14
Waxing Gibbous
Jan 15
Full
Jan 23
Last Quarter
Jan 30
New
Feb 6
First Quarter

Hourly Weather History & Observations

Time (CST) Temp. Windchill Dew Point Humidity Pressure Visibility Wind Dir Wind Speed Gust Speed Precip Events Conditions
12:15 AM 32.0 °F 22.5 °F 26.6 °F 80% 29.50 in 10.0 mi SSW 12.7 mph - N/A   Overcast
12:35 AM 33.8 °F 24.8 °F 28.4 °F 81% 29.50 in 10.0 mi SSW 12.7 mph 18.4 mph N/A   Overcast
12:55 AM 33.8 °F 25.3 °F 28.4 °F 81% 29.49 in 10.0 mi SSW 11.5 mph - N/A   Overcast
1:15 AM 35.6 °F 26.6 °F 28.4 °F 75% 29.48 in 10.0 mi SW 13.8 mph - N/A   Overcast
1:35 AM 35.6 °F 26.2 °F 28.4 °F 75% 29.47 in 10.0 mi SW 15.0 mph - N/A   Overcast
1:55 AM 35.6 °F 26.2 °F 30.2 °F 81% 29.48 in 10.0 mi SW 15.0 mph - N/A   Overcast
2:15 AM 35.6 °F 26.2 °F 30.2 °F 81% 29.48 in 9.0 mi WSW 15.0 mph - N/A Rain Light Rain
2:35 AM 37.4 °F 28.2 °F 32.0 °F 81% 29.49 in 9.0 mi WSW 16.1 mph - N/A Rain Light Rain
2:55 AM 37.4 °F 27.5 °F 33.8 °F 87% 29.51 in 6.0 mi WNW 18.4 mph 29.9 mph N/A Rain Light Rain
3:15 AM 37.4 °F 25.4 °F 33.8 °F 87% 29.53 in 9.0 mi NW 27.6 mph 36.8 mph N/A Rain Light Rain
3:35 AM 35.6 °F 23.7 °F 33.8 °F 93% 29.54 in 9.0 mi NW 24.2 mph 29.9 mph N/A   Overcast
3:55 AM 35.6 °F 24.5 °F 33.8 °F 93% 29.55 in 10.0 mi NW 20.7 mph 27.6 mph N/A   Overcast
4:15 AM 35.6 °F 22.3 °F 32.0 °F 87% 29.57 in 10.0 mi NW 31.1 mph 46.0 mph N/A   Overcast
4:35 AM 33.8 °F 20.3 °F 28.4 °F 81% 29.60 in 10.0 mi NNW 28.8 mph 44.9 mph N/A   Overcast
4:55 AM 33.8 °F 20.5 °F 28.4 °F 81% 29.62 in 10.0 mi NW 27.6 mph 43.7 mph 0.01 in   Overcast
5:15 AM 32.0 °F 18.1 °F 26.6 °F 80% 29.64 in 10.0 mi NNW 27.6 mph 44.9 mph N/A   Overcast
5:35 AM 32.0 °F 19.2 °F 26.6 °F 80% 29.66 in 10.0 mi NW 23.0 mph 40.3 mph N/A   Overcast
5:55 AM 30.2 °F 15.4 °F 23.0 °F 75% 29.68 in 10.0 mi NNW 28.8 mph 50.6 mph N/A   Overcast
6:15 AM 30.2 °F 15.7 °F 24.8 °F 80% 29.70 in 10.0 mi NW 27.6 mph 41.4 mph N/A   Overcast
6:35 AM 28.4 °F 13.0 °F 23.0 °F 80% 29.71 in 10.0 mi NW 28.8 mph 43.7 mph N/A   Overcast
6:55 AM 28.4 °F 13.8 °F 23.0 °F 80% 29.73 in 10.0 mi NW 25.3 mph 46.0 mph N/A   Overcast
7:15 AM 28.4 °F 12.0 °F 21.2 °F 74% 29.74 in 10.0 mi NNW 33.4 mph 43.7 mph N/A   Overcast
7:35 AM 26.6 °F 10.6 °F 19.4 °F 74% 29.75 in 10.0 mi NNW 28.8 mph 43.7 mph N/A Rain Light Freezing Rain
7:55 AM 26.6 °F 10.3 °F 19.4 °F 74% 29.76 in 10.0 mi NNW 29.9 mph 43.7 mph N/A   Overcast
8:15 AM 26.6 °F 11.4 °F 21.2 °F 80% 29.78 in 8.0 mi NNW 25.3 mph 41.4 mph N/A   Overcast
8:35 AM 26.6 °F 10.0 °F 19.4 °F 74% 29.79 in 6.0 mi NW 31.1 mph 42.6 mph N/A Rain Light Freezing Rain
8:55 AM 24.8 °F 6.6 °F 17.6 °F 74% 29.81 in 6.0 mi NW 35.7 mph 46.0 mph N/A Snow Light Snow
9:15 AM 24.8 °F 7.9 °F 17.6 °F 74% 29.82 in 5.0 mi NW 29.9 mph 49.5 mph N/A Snow Light Snow
9:35 AM 24.8 °F 7.6 °F 17.6 °F 74% 29.83 in 5.0 mi NW 31.1 mph 47.2 mph N/A Snow Light Snow
9:55 AM 24.8 °F 8.4 °F 19.4 °F 80% 29.84 in 2.5 mi NW 27.6 mph 42.6 mph N/A Snow Light Snow
10:15 AM 24.8 °F 9.0 °F 19.4 °F 80% 29.85 in 4.0 mi NW 25.3 mph 38.0 mph N/A Snow Light Snow
10:35 AM 24.8 °F 7.1 °F 15.8 °F 69% 29.86 in 8.0 mi NW 33.4 mph 46.0 mph N/A Rain Light Freezing Rain
10:55 AM 24.8 °F 7.3 °F 15.8 °F 69% 29.88 in 8.0 mi NW 32.2 mph 46.0 mph N/A Rain Light Freezing Rain
11:15 AM 23.0 °F 5.1 °F 14.0 °F 68% 29.89 in 8.0 mi NNW 31.1 mph 44.9 mph N/A Rain Light Freezing Rain
11:35 AM 23.0 °F 4.6 °F 14.0 °F 68% 29.89 in 9.0 mi NW 33.4 mph 43.7 mph N/A Rain Light Freezing Rain
11:55 AM 23.0 °F 6.3 °F 14.0 °F 68% 29.89 in 8.0 mi NW 26.5 mph 36.8 mph N/A Rain Light Freezing Rain
12:15 PM 23.0 °F 6.0 °F 15.8 °F 74% 29.90 in 2.5 mi NNW 27.6 mph 40.3 mph N/A Snow Light Snow
12:35 PM 23.0 °F 5.7 °F 14.0 °F 68% 29.90 in 7.0 mi NW 28.8 mph 36.8 mph N/A Rain Light Freezing Rain
12:55 PM 23.0 °F 6.9 °F 14.0 °F 68% 29.90 in 8.0 mi NW 24.2 mph 36.8 mph N/A Rain Light Freezing Rain
1:15 PM 23.0 °F 5.4 °F 14.0 °F 68% 29.91 in 9.0 mi NNW 29.9 mph 41.4 mph N/A Rain Light Freezing Rain
1:35 PM 23.0 °F 7.2 °F 14.0 °F 68% 29.92 in 7.0 mi NNW 23.0 mph 38.0 mph N/A Rain Light Freezing Rain
1:55 PM 21.2 °F 3.9 °F 14.0 °F 74% 29.93 in 7.0 mi NW 26.5 mph 38.0 mph N/A Snow Light Snow
2:15 PM 21.2 °F 3.3 °F 14.0 °F 74% 29.94 in 6.0 mi NW 28.8 mph 38.0 mph N/A Snow Light Snow
2:35 PM 21.2 °F 3.3 °F 14.0 °F 74% 29.95 in 6.0 mi NNW 28.8 mph 36.8 mph N/A Snow Light Snow
2:55 PM 21.2 °F 3.3 °F 12.2 °F 68% 29.97 in 5.0 mi NNW 28.8 mph 40.3 mph N/A Snow Light Snow
3:15 PM 21.2 °F 3.0 °F 12.2 °F 68% 29.98 in 4.0 mi NW 29.9 mph 42.6 mph N/A Snow Light Snow
3:35 PM 21.2 °F 4.2 °F 12.2 °F 68% 30.00 in 8.0 mi NW 25.3 mph 36.8 mph N/A Rain Light Freezing Rain
3:55 PM 21.2 °F 4.2 °F 12.2 °F 68% 30.01 in 8.0 mi NW 25.3 mph 36.8 mph N/A Rain Light Freezing Rain
4:15 PM 21.2 °F 3.5 °F 10.4 °F 63% 30.02 in 8.0 mi NNW 27.6 mph 39.1 mph N/A Rain Light Freezing Rain
4:35 PM 19.4 °F 1.1 °F 10.4 °F 68% 30.03 in 9.0 mi NNW 27.6 mph 39.1 mph N/A   Light Freezing Rain
4:55 PM 19.4 °F 1.1 °F 10.4 °F 68% 30.04 in 9.0 mi NNW 27.6 mph 42.6 mph N/A   Overcast
5:15 PM 19.4 °F 1.1 °F 10.4 °F 68% 30.04 in 10.0 mi NNW 27.6 mph 36.8 mph N/A   Overcast
5:35 PM 19.4 °F 2.1 °F 10.4 °F 68% 30.06 in 10.0 mi NNW 24.2 mph 35.7 mph N/A   Overcast
5:55 PM 19.4 °F 2.1 °F 10.4 °F 68% 30.06 in 10.0 mi NNW 24.2 mph 29.9 mph N/A   Overcast
6:15 PM 17.6 °F -0.6 °F 8.6 °F 68% 30.06 in 9.0 mi NNW 25.3 mph 34.5 mph N/A   Light Freezing Rain
6:35 PM 17.6 °F -1.6 °F 8.6 °F 68% 30.07 in 10.0 mi NNW 28.8 mph 39.1 mph N/A   Overcast
6:55 PM 17.6 °F -0.3 °F 8.6 °F 68% 30.09 in 10.0 mi NNW 24.2 mph 33.4 mph N/A   Overcast
7:15 PM 17.6 °F -0.3 °F 6.8 °F 63% 30.08 in 10.0 mi NNW 24.2 mph 40.3 mph N/A Rain Light Freezing Rain
7:35 PM 15.8 °F -1.9 °F 6.8 °F 68% 30.08 in 10.0 mi NNW 21.9 mph 33.4 mph N/A   Mostly Cloudy
7:55 PM 15.8 °F -1.9 °F 6.8 °F 68% 30.09 in 10.0 mi NNW 21.9 mph 33.4 mph N/A   Overcast
8:15 PM 15.8 °F -2.3 °F 5.0 °F 62% 30.09 in 10.0 mi NNW 23.0 mph 35.7 mph N/A   Mostly Cloudy
8:35 PM 15.8 °F -4.4 °F 5.0 °F 62% 30.09 in 10.0 mi NNW 29.9 mph 39.1 mph N/A   Mostly Cloudy
8:55 PM 14.0 °F -3.9 °F 5.0 °F 67% 30.10 in 10.0 mi NNW 20.7 mph 34.5 mph N/A   Mostly Cloudy
9:15 PM 14.0 °F -3.4 °F 5.0 °F 67% 30.11 in 10.0 mi NNW 19.6 mph 33.4 mph N/A   Partly Cloudy
9:35 PM 14.0 °F -3.9 °F 5.0 °F 67% 30.12 in 10.0 mi NNW 20.7 mph 33.4 mph N/A   Partly Cloudy
9:55 PM 14.0 °F -5.5 °F 5.0 °F 67% 30.12 in 10.0 mi NNW 25.3 mph 32.2 mph N/A   Mostly Cloudy
10:15 PM 14.0 °F -3.0 °F 5.0 °F 67% 30.12 in 10.0 mi NNW 18.4 mph 34.5 mph N/A   Partly Cloudy
10:35 PM 12.2 °F -6.7 °F 5.0 °F 73% 30.12 in 10.0 mi NNW 21.9 mph 29.9 mph N/A   Scattered Clouds
10:55 PM 12.2 °F -6.3 °F 5.0 °F 73% 30.12 in 10.0 mi NNW 20.7 mph 28.8 mph N/A   Partly Cloudy
11:15 PM 12.2 °F -6.3 °F 5.0 °F 73% 30.13 in 10.0 mi NNW 20.7 mph 26.5 mph N/A   Mostly Cloudy
11:35 PM 12.2 °F -3.7 °F 5.0 °F 73% 30.13 in 10.0 mi NNW 15.0 mph 25.3 mph N/A   Overcast
11:55 PM 12.2 °F -4.3 °F 5.0 °F 73% 30.12 in 10.0 mi NNW 16.1 mph 25.3 mph N/A   Overcast